TimeCDT,TemperatureF,Dew PointF,Humidity,Sea Level PressureIn,VisibilityMPH,Wind Direction,Wind SpeedMPH,Gust SpeedMPH,PrecipitationIn,Events,Conditions,WindDirDegrees,DateUTC
12:15 AM,37.8,36.5,95,30.22,10.0,Calm,Calm,-,N/A,,Clear,0,2013-08-14 05:15:00
12:35 AM,38.5,37.0,95,30.22,10.0,Calm,Calm,-,N/A,,Clear,0,2013-08-14 05:35:00
12:55 AM,36.9,35.6,95,30.21,10.0,Calm,Calm,-,N/A,,Clear,0,2013-08-14 05:55:00
1:15 AM,36.3,34.9,95,30.22,10.0,Calm,Calm,-,N/A,,Clear,0,2013-08-14 06:15:00
1:35 AM,35.4,33.8,94,30.22,7.0,Calm,Calm,-,N/A,,Clear,0,2013-08-14 06:35:00
1:55 AM,36.1,34.7,94,30.21,10.0,Calm,Calm,-,N/A,,Clear,0,2013-08-14 06:55:00
2:15 AM,35.1,33.4,94,30.21,10.0,Calm,Calm,-,N/A,,Clear,0,2013-08-14 07:15:00
2:35 AM,33.4,32.0,94,30.22,10.0,Calm,Calm,-,N/A,,Clear,0,2013-08-14 07:35:00
2:55 AM,34.5,33.1,94,30.22,10.0,Calm,Calm,-,N/A,,Clear,0,2013-08-14 07:55:00
3:15 AM,33.8,32.2,94,30.22,10.0,Calm,Calm,-,N/A,,Clear,0,2013-08-14 08:15:00
3:35 AM,33.8,32.2,94,30.22,10.0,Calm,Calm,-,N/A,,Clear,0,2013-08-14 08:35:00
3:55 AM,34.5,33.1,94,30.22,10.0,Calm,Calm,-,N/A,,Clear,0,2013-08-14 08:55:00
4:15 AM,34.5,33.1,94,30.21,10.0,Calm,Calm,-,N/A,,Clear,0,2013-08-14 09:15:00
4:35 AM,32.2,31.1,96,30.22,10.0,Calm,Calm,-,N/A,,Clear,0,2013-08-14 09:35:00
4:55 AM,32.0,31.1,96,30.23,10.0,Calm,Calm,-,N/A,,Clear,0,2013-08-14 09:55:00
5:15 AM,32.2,31.5,97,30.23,10.0,Calm,Calm,-,N/A,,Mostly Cloudy,0,2013-08-14 10:15:00
5:35 AM,33.1,32.0,96,30.23,10.0,Calm,Calm,-,N/A,,Overcast,0,2013-08-14 10:35:00
5:55 AM,33.8,32.4,94,30.23,10.0,Calm,Calm,-,N/A,,Overcast,0,2013-08-14 10:55:00
6:15 AM,36.5,35.4,96,30.24,10.0,Calm,Calm,-,N/A,,Overcast,0,2013-08-14 11:15:00
6:35 AM,37.8,36.5,95,30.24,10.0,Calm,Calm,-,N/A,,Overcast,0,2013-08-14 11:35:00
6:55 AM,39.7,38.7,96,30.24,10.0,Calm,Calm,-,N/A,,Overcast,0,2013-08-14 11:55:00
7:15 AM,41.4,40.1,95,30.24,10.0,Calm,Calm,-,N/A,,Overcast,0,2013-08-14 12:15:00
7:35 AM,43.3,42.1,95,30.24,10.0,Calm,Calm,-,N/A,,Overcast,0,2013-08-14 12:35:00
7:55 AM,45.7,44.4,95,30.23,10.0,Calm,Calm,-,N/A,,Overcast,0,2013-08-14 12:55:00
8:15 AM,47.5,45.7,93,30.23,10.0,Calm,Calm,-,N/A,,Overcast,0,2013-08-14 13:15:00
8:35 AM,48.7,46.2,91,30.23,10.0,Calm,Calm,-,N/A,,Overcast,0,2013-08-14 13:35:00
8:55 AM,50.9,46.0,83,30.23,10.0,Calm,Calm,-,N/A,,Overcast,0,2013-08-14 13:55:00
9:15 AM,52.7,46.0,78,30.23,10.0,Calm,Calm,-,N/A,,Scattered Clouds,0,2013-08-14 14:15:00
9:35 AM,56.7,46.2,68,30.22,10.0,Calm,Calm,-,N/A,,Clear,0,2013-08-14 14:35:00
9:55 AM,59.7,45.1,59,30.22,10.0,WSW,3.5,-,N/A,,Clear,240,2013-08-14 14:55:00
10:15 AM,60.6,44.4,55,30.22,10.0,Calm,Calm,-,N/A,,Clear,0,2013-08-14 15:15:00
10:35 AM,61.7,43.9,52,30.21,10.0,Calm,Calm,-,N/A,,Clear,0,2013-08-14 15:35:00
10:55 AM,62.2,43.3,50,30.21,10.0,North,5.8,-,N/A,,Scattered Clouds,10,2013-08-14 15:55:00
11:15 AM,63.5,45.7,52,30.21,10.0,WNW,4.6,-,N/A,,Mostly Cloudy,300,2013-08-14 16:15:00
11:35 AM,62.4,44.6,52,30.20,10.0,WSW,3.5,-,N/A,,Mostly Cloudy,250,2013-08-14 16:35:00
11:55 AM,64.0,45.0,50,30.20,10.0,NW,4.6,-,N/A,,Mostly Cloudy,310,2013-08-14 16:55:00
12:15 PM,64.2,44.4,49,30.20,10.0,West,6.9,-,N/A,,Mostly Cloudy,270,2013-08-14 17:15:00
12:35 PM,64.9,44.2,47,30.19,10.0,NW,5.8,-,N/A,,Mostly Cloudy,320,2013-08-14 17:35:00
12:55 PM,64.2,44.8,49,30.19,10.0,NNW,4.6,-,N/A,,Mostly Cloudy,340,2013-08-14 17:55:00
1:15 PM,65.1,44.6,47,30.19,10.0,WNW,4.6,-,N/A,,Mostly Cloudy,290,2013-08-14 18:15:00
1:35 PM,64.4,45.9,51,30.18,10.0,NNW,4.6,-,N/A,,Overcast,330,2013-08-14 18:35:00
1:55 PM,65.8,46.6,50,30.18,10.0,WNW,10.4,-,N/A,,Overcast,300,2013-08-14 18:55:00
2:55 PM,65.7,44.4,46,30.16,10.0,West,4.6,-,N/A,,Mostly Cloudy,270,2013-08-14 19:55:00
3:15 PM,69.1,45.7,43,30.16,10.0,West,8.1,-,N/A,,Mostly Cloudy,270,2013-08-14 20:15:00
3:35 PM,66.6,44.2,44,30.15,10.0,West,8.1,-,N/A,,Overcast,270,2013-08-14 20:35:00
3:55 PM,65.3,44.8,47,30.15,10.0,WNW,8.1,-,N/A,,Mostly Cloudy,290,2013-08-14 20:55:00
4:15 PM,68.7,44.8,42,30.15,10.0,NW,9.2,-,N/A,,Mostly Cloudy,310,2013-08-14 21:15:00
4:35 PM,68.0,44.4,43,30.14,10.0,West,6.9,-,N/A,,Clear,270,2013-08-14 21:35:00
4:55 PM,68.2,45.3,44,30.14,10.0,West,10.4,-,N/A,,Scattered Clouds,280,2013-08-14 21:55:00
5:15 PM,68.9,43.9,40,30.14,10.0,WNW,6.9,-,N/A,,Scattered Clouds,300,2013-08-14 22:15:00
5:35 PM,68.2,43.2,40,30.14,10.0,West,6.9,-,N/A,,Mostly Cloudy,280,2013-08-14 22:35:00
5:55 PM,66.9,42.4,41,30.14,10.0,NW,9.2,-,N/A,,Scattered Clouds,310,2013-08-14 22:55:00
6:15 PM,66.4,43.2,43,30.14,10.0,NW,6.9,-,N/A,,Clear,310,2013-08-14 23:15:00
6:35 PM,65.8,44.1,45,30.14,10.0,NNW,5.8,-,N/A,,Clear,330,2013-08-14 23:35:00
6:55 PM,64.8,44.1,47,30.14,10.0,WNW,4.6,-,N/A,,Clear,300,2013-08-14 23:55:00
7:15 PM,63.7,45.3,51,30.14,10.0,NNW,3.5,-,N/A,,Clear,330,2013-08-15 00:15:00
7:35 PM,61.3,46.4,58,30.14,10.0,Calm,Calm,-,N/A,,Clear,0,2013-08-15 00:35:00
7:55 PM,56.7,47.8,72,30.14,10.0,Calm,Calm,-,N/A,,Clear,0,2013-08-15 00:55:00
8:15 PM,53.4,46.9,79,30.14,7.0,Calm,Calm,-,N/A,,Clear,0,2013-08-15 01:15:00
8:35 PM,50.9,45.9,83,30.14,10.0,Calm,Calm,-,N/A,,Clear,0,2013-08-15 01:35:00
8:55 PM,49.5,45.3,86,30.14,10.0,Calm,Calm,-,N/A,,Clear,0,2013-08-15 01:55:00
9:15 PM,48.2,45.1,89,30.14,10.0,Calm,Calm,-,N/A,,Clear,0,2013-08-15 02:15:00
9:35 PM,46.9,44.4,91,30.14,10.0,Calm,Calm,-,N/A,,Clear,0,2013-08-15 02:35:00
9:55 PM,46.0,43.9,92,30.14,10.0,Calm,Calm,-,N/A,,Clear,0,2013-08-15 02:55:00
10:15 PM,45.0,43.0,93,30.14,10.0,Calm,Calm,-,N/A,,Clear,0,2013-08-15 03:15:00
10:35 PM,44.1,42.3,93,30.14,10.0,Calm,Calm,-,N/A,,Clear,0,2013-08-15 03:35:00
10:55 PM,43.5,41.9,94,30.14,3.0,Calm,Calm,-,N/A,,Clear,0,2013-08-15 03:55:00
11:15 PM,43.5,42.1,95,30.14,10.0,Calm,Calm,-,N/A,,Clear,0,2013-08-15 04:15:00
11:35 PM,42.3,40.6,94,30.14,10.0,Calm,Calm,-,N/A,,Clear,0,2013-08-15 04:35:00
11:55 PM,41.9,40.5,95,30.14,10.0,Calm,Calm,-,N/A,,Clear,0,2013-08-15 04:55:00